Date,TemperatureHighF,TemperatureAvgF,TemperatureLowF,DewpointHighF,DewpointAvgF,DewpointLowF,HumidityHigh,HumidityAvg,HumidityLow,PressureMaxIn,PressureMinIn,WindSpeedMaxMPH,WindSpeedAvgMPH,GustSpeedMaxMPH,PrecipitationSumIn
2013-2-1,24.0,21.0,15.0,15.0,8.3,2.0,72,58,44,0.00,40.00,9,6,27,0.01
2013-2-2,20.0,15.8,8.0,18.0,8.0,2.0,93,72,56,0.00,40.00,6,3,17,0.00
2013-2-3,28.0,22.2,16.0,23.0,17.9,9.0,99,84,63,0.00,40.00,8,2,21,0.02
2013-2-4,25.0,21.2,17.0,22.0,11.7,8.0,96,67,47,0.00,40.00,7,4,21,0.02
2013-2-5,32.0,27.5,24.0,29.0,25.4,22.0,100,92,82,0.00,40.00,5,2,10,0.02
2013-2-6,36.0,27.9,20.0,28.0,21.7,16.0,100,79,47,0.00,40.00,6,3,15,0.01
2013-2-7,31.0,24.0,16.0,20.0,14.8,12.0,92,69,53,0.00,40.00,9,5,19,0.01
2013-2-8,35.0,31.7,28.0,33.0,30.5,20.0,100,95,73,0.00,40.00,13,6,23,0.01
2013-2-9,29.0,22.5,18.0,26.0,15.0,11.0,100,73,59,0.00,40.00,9,6,26,0.23
2013-2-10,41.0,25.3,7.0,16.0,10.1,2.0,94,58,20,0.00,40.00,8,3,19,0.02
2013-2-11,42.0,36.7,32.0,42.0,33.5,15.0,100,90,46,0.00,40.00,9,5,23,0.11
2013-2-12,38.0,34.5,26.0,27.0,23.9,22.0,93,66,55,0.00,40.00,8,5,23,0.03
2013-2-13,39.0,29.9,21.0,32.0,26.3,21.0,100,88,61,0.00,40.00,6,2,13,0.00
2013-2-14,42.0,34.0,27.0,32.0,29.5,27.0,100,85,61,0.00,40.00,6,2,13,0.11
2013-2-15,45.0,38.9,32.0,34.0,29.4,26.0,100,70,50,0.00,40.00,6,3,16,0.02
2013-2-16,33.0,29.2,25.0,32.0,22.5,11.0,100,78,54,0.00,40.00,6,2,17,0.15
2013-2-17,25.0,20.8,16.0,14.0,7.9,1.0,78,57,42,0.00,40.00,10,6,25,0.03
2013-2-18,35.0,23.3,13.0,15.0,7.5,3.0,66,51,35,0.00,40.00,8,5,20,0.00
2013-2-19,36.0,33.0,30.0,36.0,25.7,11.0,100,77,41,0.00,40.00,8,6,20,0.29
2013-2-20,28.0,23.1,19.0,20.0,11.5,8.0,73,61,54,0.00,40.00,8,6,26,0.01
2013-2-21,33.0,24.3,19.0,16.0,13.3,9.0,73,63,48,0.00,40.00,8,6,20,0.00
2013-2-22,31.0,25.7,19.0,26.0,19.9,15.0,92,79,66,0.00,40.00,10,5,18,0.00
2013-2-23,41.0,34.7,30.0,41.0,34.4,27.0,100,99,87,0.00,40.00,7,3,14,0.00
2013-2-24,35.0,32.5,29.0,35.0,27.3,18.0,100,82,59,0.00,40.00,7,4,19,0.01
2013-2-25,41.0,31.9,26.0,30.0,23.9,19.0,95,74,51,0.00,40.00,6,3,12,0.01
2013-2-26,38.0,31.9,25.0,35.0,29.1,25.0,100,89,67,0.00,40.00,20,9,38,0.25
2013-2-27,39.0,36.8,34.0,39.0,36.8,34.0,100,100,100,0.00,40.00,20,8,38,0.48
2013-2-28,39.0,34.4,32.0,35.0,32.5,29.0,100,94,71,0.00,40.00,5,2,16,0.06